Location: Newark
(12.0500°N, 61.7500°W)
Time: 21:00:14
(UTC+00:00)

Envisat - Pass Details

Date: 25 January 2020
Orbit: 764 x 766 km, 98.1° (Epoch: 25 February)

Event Time Altitude Azimuth Distance (km) Brightness Sun altitude
Rises 22:18:42 0° 169° (S) 3,222 6.3 -3.7°
Reaches altitude 10° 22:21:00 10° 170° (S) 2,296 5.6 -4.3°
Maximum altitude 22:26:04 84° 258° (WSW) 772 3.1 -5.4°
Drops below altitude 10° 22:31:09 10° 346° (NNW) 2,297 5.4 -6.6°
Sets 22:33:27 0° 347° (NNW) 3,222 6.2 -7.2°
